ONEWEB-0350 (49214 NORAD) Tracking and Keplerian Element Data

This shows tracking and keplerian element data for the satellite.

Feedback or suggestion? Click here.




ElementValue
Catalog49214
NameONEWEB-0350
Epoch Orbit779
Epoch Day300.83334491
Epoch Year2021
RAAN313.0025
Inclination87.1999
Eccentricity0.0019166
Argument of Perigee142.0692
Mean Anonmoly143.4141
Mean Motion14.87073501
Decay Rate0.00030251
L11 49214U 21083AE 21300.83334491 .00030251 00000-0 33486-2 0 9992
L22 49214 87.1999 313.0025 0019166 142.0692 143.4141 14.87073501 7793

Live tracking and technical data element details for ONEWEB-0350 (NORAD 49214). ONEWEB-0350 can be tracked NOW for your location showing map with azimuth and elevation plus other details from your city location.

Track the satellite on the map from your city or location and see movement details for azimuth, elevation, latitude, longitude, range, height, and movement on the map or in text.







IsCatalogInMostPopularTable: catalog: 49214, numindb: 14
Update: records affected: 1



GetName: 49214 ONEWEB-0350

Hit Count: updated at: Thu, 28 Oct 2021 11:25:14 GMT